sat.trackr.live / text

‹ back to catalog

STARLINK-11196 [DTC]

NORAD 60408 · 2024-141L

PAYLOAD ACTIVE UNKNOWN

§ Identity

Operator
Country
US
Launch date
2024-08-10
Launch site
AFETR
Launch vehicle
Mass (kg)
RCS (m²)

Purposes: comms

External: N2YO · Heavens-Above · Gunter

§ Orbital elements

Epoch: 2026-09-21T13:08:26.693952Z

Period
91.74 min
Inclination
53.1590°
Eccentricity
0.0000896
Mean motion
15.69705715 rev/d
Perigee alt
359.1 km
Apogee alt
360.3 km
Semi-major
6,737.9 km
B*
-1.0995e-6
RAAN
200.8176°
Arg perigee
100.9650°
Mean anomaly
259.1469°
Rev number
12,250

§ Raw data

STARLINK-11196 [DTC]1 60408U 24141L   26264.54753118 -.00000721  00000+0 -10995-5 0  99942 60408  53.1590 200.8176 0000896 100.9650 259.1469 15.69705715122503

JSON: /api/v1/satellites/60408 · /tle

For live sub-satellite position, see the globe view (requires WebGL).

§ Visibility from observer

Set your observer location to see the next 7 days of passes ≥ 10°. The values pass through the URL so the page stays shareable.

No JS? Fill the form by hand. The geolocation button needs JavaScript.